0 HST 1 20580U 90037B 26120.15069886 .00007038 00000-0 22624-3 0 9995 2 20580 28.4757 48.7403 0001769 337.5229 22.5290 15.30208308781208 0 ISS (ZARYA) 1 25544U 98067A 26120.19993199 .00006779 00000-0 13091-3 0 9997 2 25544 51.6316 177.6251 0007128 6.6336 353.4746 15.49030629564315 0 CXO 1 25867U 99040B 26121.77434247 .00000574 00000-0 00000+0 0 9995 2 25867 55.4326 117.9802 7910128 310.5568 359.9255 0.37807064 17145